User: anonymous   Login
Location: Unspecified
(0.0000°N, 0.0000°E)
Time: 06:41:07
(UTC+00:00)
Language:

MOZHAYETS 4 - Orbit

View from above orbital plane
View from above orbital plane
View from above satellite
View from above satellite

Ground track
Ground track

The orbit data is extracted from the following two-line orbital elements,

1 27939U 03042A   21169.54143433  .00000147  00000-0  34991-4 0  9997
2 27939  98.1421 306.6282 0011446 276.7120  83.2780 14.66992013947688
Epoch (UTC): 18 June 2021 12:59:39
Eccentricity: 0.0011446
inclination: 98.1421°
perigee height: 662 km
apogee height: 679 km
right ascension of ascending node: 306.6282°
argument of perigee: 276.7120°
revolutions per day: 14.66992013
mean anomaly at epoch: 83.2780°
orbit number at epoch: 94768

The dashed part of the orbit path shows where the satellite is in the earth's shadow,  

DLR